Time,TemperatureF,DewpointF,PressureIn,WindDirection,WindDirectionDegrees,WindSpeedMPH,WindSpeedGustMPH,Humidity,HourlyPrecipIn,Conditions,Clouds,dailyrainin,SoftwareType,DateUTC
2013-05-09 04:13:00,47.3,47.1,30.03,East,90,1.0,-999.0,99,-99.99,,,0.00,meteohub,2013-05-09 08:13:00,
2013-05-09 04:14:00,47.3,47.1,30.03,East,90,1.0,-999.0,99,-99.99,,,0.00,meteohub,2013-05-09 08:14:00,
2013-05-09 04:19:00,47.3,47.1,30.03,South,180,3.0,-999.0,99,0.00,,,0.00,meteohub,2013-05-09 08:19:00,
2013-05-09 04:24:00,47.5,47.3,30.03,West,270,0.0,3.0,99,0.00,,,0.00,meteohub,2013-05-09 08:24:00,
2013-05-09 04:29:00,47.5,47.3,30.03,South,180,2.0,3.0,99,0.00,,,0.00,meteohub,2013-05-09 08:29:00,
2013-05-09 04:34:00,48.4,48.2,30.03,NE,45,2.0,3.0,99,0.00,,,0.00,meteohub,2013-05-09 08:34:00,
2013-05-09 04:39:00,48.9,48.7,30.03,East,90,1.0,2.0,99,0.00,,,0.00,meteohub,2013-05-09 08:39:00,
2013-05-09 04:44:00,48.7,48.6,30.03,SW,225,2.0,2.0,99,0.00,,,0.00,meteohub,2013-05-09 08:44:00,
2013-05-09 04:49:00,48.6,48.4,30.02,NW,315,2.0,2.0,99,0.00,,,0.00,meteohub,2013-05-09 08:49:00,
2013-05-09 04:54:00,48.7,48.6,30.03,NW,315,1.0,2.0,99,0.00,,,0.00,meteohub,2013-05-09 08:54:00,
2013-05-09 04:59:00,48.9,48.7,30.02,NW,315,1.0,2.0,99,0.00,,,0.00,meteohub,2013-05-09 08:59:00,
2013-05-09 05:04:00,49.1,48.9,30.02,SE,135,2.0,2.0,99,0.00,,,0.00,meteohub,2013-05-09 09:04:00,
2013-05-09 05:09:00,49.1,48.9,30.03,SE,135,2.0,2.0,99,0.00,,,0.00,meteohub,2013-05-09 09:09:00,
2013-05-09 05:14:00,49.3,49.1,30.03,SE,135,2.0,2.0,99,0.00,,,0.00,meteohub,2013-05-09 09:14:00,
2013-05-09 05:19:00,49.5,49.3,30.03,NW,315,0.0,2.0,99,0.00,,,0.00,meteohub,2013-05-09 09:19:00,
2013-05-09 05:24:00,49.3,49.1,30.03,North,0,2.0,2.0,99,0.00,,,0.00,meteohub,2013-05-09 09:24:00,
2013-05-09 05:29:00,49.5,49.3,30.04,NE,45,2.0,3.0,99,0.00,,,0.00,meteohub,2013-05-09 09:29:00,
2013-05-09 05:34:00,49.3,49.1,30.03,South,180,2.0,3.0,99,0.00,,,0.00,meteohub,2013-05-09 09:34:00,
2013-05-09 05:39:00,48.9,48.7,30.03,North,0,2.0,3.0,99,0.00,,,0.00,meteohub,2013-05-09 09:39:00,
2013-05-09 05:44:00,49.3,49.1,30.03,SE,135,3.0,3.0,99,0.00,,,0.00,meteohub,2013-05-09 09:44:00,
2013-05-09 05:49:00,49.6,49.5,30.03,NE,45,2.0,4.0,99,0.00,,,0.00,meteohub,2013-05-09 09:49:00,
2013-05-09 05:54:00,49.3,49.1,30.04,SE,135,2.0,4.0,99,0.00,,,0.00,meteohub,2013-05-09 09:54:00,
2013-05-09 05:59:00,49.5,49.3,30.04,NW,315,8.0,8.0,99,0.00,,,0.00,meteohub,2013-05-09 09:59:00,
2013-05-09 06:04:00,50.0,49.6,30.04,SW,225,4.0,7.0,99,0.00,,,0.00,meteohub,2013-05-09 10:04:00,
2013-05-09 06:09:00,52.7,52.2,30.04,NW,315,3.0,8.0,98,0.00,,,0.00,meteohub,2013-05-09 10:09:00,
2013-05-09 06:14:00,53.6,52.7,30.04,West,270,3.0,8.0,97,0.00,,,0.00,meteohub,2013-05-09 10:14:00,
2013-05-09 06:19:00,54.1,53.2,30.04,North,0,4.0,4.0,97,0.00,,,0.00,meteohub,2013-05-09 10:19:00,
2013-05-09 06:24:00,54.0,53.1,30.05,NE,45,4.0,4.0,97,0.00,,,0.00,meteohub,2013-05-09 10:24:00,
2013-05-09 06:29:00,54.0,53.1,30.05,NE,45,4.0,5.0,97,0.00,,,0.00,meteohub,2013-05-09 10:29:00,
2013-05-09 06:34:00,50.5,50.2,30.05,North,0,2.0,5.0,99,0.00,,,0.00,meteohub,2013-05-09 10:34:00,
2013-05-09 06:39:00,50.5,50.2,30.05,North,0,2.0,5.0,99,0.00,,,0.00,meteohub,2013-05-09 10:39:00,
2013-05-09 06:44:00,50.5,50.2,30.06,North,0,2.0,4.0,99,0.00,,,0.00,meteohub,2013-05-09 10:44:00,
2013-05-09 14:48:00,80.1,54.3,30.07,South,180,8.0,-999.0,41,-99.99,,,0.00,meteohub,2013-05-09 18:48:00,
2013-05-09 14:53:00,80.1,54.3,30.07,South,180,8.0,-999.0,41,0.00,,,0.00,meteohub,2013-05-09 18:53:00,
2013-05-09 14:58:00,80.1,54.3,30.07,South,180,8.0,8.0,41,0.00,,,0.00,meteohub,2013-05-09 18:58:00,